Location: Sauerland
(51.1981°N, 7.8053°E)
Time: 19:19:36
(UTC+01:00)

ISS - Pass Details

Date: 25 February 2026
Orbit: 416 x 427 km, 51.6° (Epoch: 6 March)

Event Time Altitude Azimuth Distance (km) Brightness Sun altitude
Exits shadow 04:19:05 17° 81° (E) 1,147 -0.8 -29.0°
Drops below altitude 10° 04:19:57 10° 81° (E) 1,496 -0.1 -28.9°
Sets 04:22:03 0° 81° (E) 2,359 1.2 -28.5°
